[[{"header":{"parameterUnit":"m.s-1","parameterCategory":1,"la1":30.2991,"la2":30.254,"lo1":-89.0895,"lo2":-89.0444,"dy":0.0017,"dx":0.0017,"nx":28,"ny":28,"refTime":"2025-01-03T03:00:00:Z","depth":0,"parameterNumber":2,"parameterNumberName":"U-component_of_WINDS"},"data":[0,0,0,0,0,0,0,0,0,0,0,0,0,0,0,0,0,0,0,0,0,0,0,0,0,0,0,0,0,0,0,0,0,0,0,0,0,0,0,0,0,0,0,0,0,0,0,0,0,0,0,0,0,0,0,0,0,0,-0.1958,-0.1958,0,-0.1903,-0.1903,-0.1902,-0.1859,-0.1859,-0.1858,-0.1858,-0.1801,-0.18,-0.1798,0,0,0,0,0,0,0,0,0,0,0,0,0,-0.2026,-0.2025,-0.1959,-0.1958,-0.1957,-0.1903,-0.1903,-0.1902,-0.1859,-0.1859,-0.1858,-0.1858,-0.1801,-0.18,-0.1798,0,0,0,0,0,0,0,0,0,0,0,0,0,-0.1986,-0.2025,-0.1959,-0.1929,-0.1926,-0.1904,-0.1903,-0.1902,-0.1859,-0.1859,-0.1858,-0.1858,-0.1802,-0.18,-0.1798,-0.18,0,0,-0.1793,-0.1792,0,0,0,0,0,0,0,0,-0.1989,-0.1984,-0.1934,-0.1931,-0.1928,-0.1888,-0.1905,-0.1867,-0.186,-0.1885,-0.1858,-0.1857,-0.183,-0.1826,-0.1817,-0.1797,-0.1795,-0.1793,-0.1792,-0.1791,-0.179,0,0,0,0,0,0,0,-0.1991,-0.1986,-0.1937,-0.1934,-0.193,-0.1919,-0.1912,-0.1898,-0.1861,-0.1883,-0.1879,-0.1873,-0.1828,-0.1819,-0.1815,-0.1794,-0.1793,-0.1791,-0.179,-0.179,-0.1772,-0.1773,0,0,0,0,0,0,-0.1999,-0.1989,-0.1938,-0.1935,-0.1957,-0.1918,-0.1911,-0.1901,-0.1862,-0.1855,-0.1874,-0.1872,-0.1822,-0.1817,-0.1813,-0.1812,-0.1791,-0.1789,-0.1788,-0.1771,-0.1772,-0.1773,0,0,0,0,0,0,-0.2,-0.1995,-0.1941,-0.1961,-0.1953,-0.1917,-0.1907,-0.19,-0.1891,-0.1855,-0.1848,-0.1871,-0.1821,-0.1815,-0.1803,-0.181,-0.1789,-0.1787,-0.1771,-0.1772,-0.1772,-0.1811,0,0,0,0,0,0,-0.2003,-0.1996,-0.1996,-0.1961,-0.1952,-0.1933,-0.1907,-0.19,-0.1888,-0.1884,-0.1851,-0.1844,-0.182,-0.1806,-0.1802,-0.1807,-0.1786,-0.177,-0.1771,-0.1772,-0.1809,-0.1814,-0.1817,0,0,0,0,0,-0.2005,-0.2009,-0.1996,-0.1991,-0.1952,-0.1933,-0.1928,-0.19,-0.1889,-0.1889,-0.1866,-0.1845,-0.181,-0.1805,-0.18,-0.1805,-0.177,-0.1771,-0.1772,-0.1808,-0.1813,-0.1817,0,0,0,0,0,0,-0.2046,-0.2004,-0.199,-0.1983,-0.1962,-0.1926,-0.1925,-0.1906,-0.1888,-0.1886,-0.1852,-0.1844,-0.1836,-0.1819,-0.1815,-0.1804,-0.1787,-0.1787,-0.1816,-0.182,-0.1824,-0.1829,-0.1784,0,0,0,0,0,-0.2054,-0.2042,-0.2006,-0.2003,-0.1994,-0.1961,-0.1952,-0.1932,-0.1909,-0.19,-0.1876,-0.1854,-0.1838,-0.1828,-0.1811,-0.1806,-0.1798,-0.1807,-0.1811,-0.1814,-0.1815,-0.1811,-0.1815,-0.1777,-0.1777,-0.1777,0,0,-0.2071,-0.2047,-0.2041,-0.2011,-0.1993,-0.1981,-0.1954,-0.1943,-0.1934,-0.1898,-0.1886,-0.1867,-0.184,-0.1832,-0.1827,-0.1818,-0.1823,-0.1816,-0.1819,-0.1818,-0.1813,-0.1816,-0.182,-0.1778,-0.1778,-0.1777,0,0,-0.2096,-0.2076,-0.2072,-0.2054,-0.2026,-0.2004,-0.2003,-0.197,-0.1957,-0.1943,-0.1917,-0.1905,-0.1877,-0.1859,-0.1847,-0.1864,-0.1844,-0.1859,-0.1879,-0.1876,-0.1879,-0.1881,-0.1888,-0.1891,-0.186,-0.186,-0.186,0,-0.2121,-0.2102,-0.2072,-0.2062,-0.205,-0.2017,-0.2012,-0.1996,-0.1964,-0.1956,-0.1946,-0.191,-0.189,-0.1877,-0.1881,-0.1872,-0.1869,-0.1863,-0.1881,-0.1883,-0.1885,-0.1891,-0.1893,-0.1862,-0.1862,-0.1861,-0.1861,0,-0.2134,-0.2121,-0.2121,-0.2092,-0.2079,-0.2071,-0.204,-0.2031,-0.2012,-0.1991,-0.1978,-0.1952,-0.1929,-0.1924,-0.1906,-0.1908,-0.1903,-0.1887,-0.187,-0.1891,-0.1896,-0.1898,-0.1865,-0.1864,-0.1863,-0.1863,0,0,-0.2184,-0.2138,-0.2138,-0.2124,-0.2091,-0.208,-0.2071,-0.2049,-0.2042,-0.202,-0.2012,-0.1989,-0.1974,-0.196,-0.1939,-0.1936,-0.1951,-0.192,-0.1919,-0.1927,-0.1953,-0.1966,-0.1969,-0.1938,-0.1938,-0.1938,-0.1955,0,-0.2205,-0.2188,-0.216,-0.2152,-0.214,-0.2108,-0.21,-0.2078,-0.2058,-0.2044,-0.2022,-0.2007,-0.1988,-0.1979,-0.1974,-0.195,-0.1956,-0.1949,-0.193,-0.1929,-0.1939,-0.1972,-0.1986,-0.2004,-0.1957,-0.1957,-0.1958,0,-0.2227,-0.2208,-0.2198,-0.2166,-0.2159,-0.2153,-0.213,-0.2118,-0.2092,-0.2078,-0.2061,-0.2038,-0.2026,-0.2009,-0.1993,-0.1988,-0.1978,-0.1965,-0.1965,-0.1964,-0.1946,-0.1972,-0.2008,-0.2012,-0.196,-0.196,-0.196,0,-0.2266,-0.2237,-0.2228,-0.2217,-0.2178,-0.2175,-0.2158,-0.2132,-0.212,-0.21,-0.2092,-0.2071,-0.2059,-0.2043,-0.2014,-0.2004,-0.2,-0.1981,-0.1988,-0.1989,-0.199,-0.1991,-0.2027,-0.1982,-0.1982,-0.1982,-0.1982,0,-0.2292,-0.2288,-0.2245,-0.224,-0.2234,-0.2201,-0.2196,-0.2176,-0.2153,-0.2143,-0.2113,-0.2104,-0.2067,-0.2053,-0.203,-0.202,-0.2014,-0.2002,-0.1997,-0.2006,-0.2008,-0.2,-0.1999,-0.1983,-0.1982,-0.1982,-0.1982,0,-0.2335,-0.2306,-0.2294,-0.2259,-0.2249,-0.2247,-0.2216,-0.2209,-0.2186,-0.2174,-0.2169,-0.2134,-0.2116,-0.2086,-0.2059,-0.2044,-0.2038,-0.2028,-0.2047,-0.2044,-0.2053,-0.2053,-0.2087,-0.209,-0.2042,-0.2043,-0.2043,0,-0.2355,-0.2351,-0.2315,-0.2306,-0.2291,-0.2277,-0.2265,-0.2232,-0.2221,-0.2191,-0.2188,-0.2167,-0.215,-0.2123,-0.2095,-0.2074,-0.2063,-0.2076,-0.206,-0.2069,-0.2064,-0.2066,-0.2065,-0.2081,-0.2081,-0.2082,-0.2082,0,-0.2393,-0.2379,-0.2363,-0.2342,-0.2328,-0.231,-0.229,-0.2284,-0.2247,-0.2236,-0.2217,-0.2204,-0.2176,-0.2157,-0.2132,-0.2114,-0.2092,-0.2087,-0.2088,-0.2098,-0.211,-0.2105,-0.2059,-0.2087,-0.2087,-0.2086,-0.2086,-0.2086,-0.2425,-0.242,-0.2394,-0.2377,-0.2359,-0.2341,-0.2333,-0.2309,-0.2294,-0.2269,-0.225,-0.2234,-0.2207,-0.2171,-0.2155,-0.2141,-0.2131,-0.2132,-0.2132,-0.2133,-0.2137,-0.2111,-0.2136,-0.2136,-0.2135,-0.2135,-0.2135,0,-0.2463,-0.2444,-0.2429,-0.2402,-0.2389,-0.2369,-0.2346,-0.2336,-0.2321,-0.2299,-0.2282,-0.2261,-0.2241,-0.2211,-0.2189,-0.2184,-0.2173,-0.2179,-0.218,-0.2176,-0.2147,-0.2149,-0.2188,-0.2188,-0.2188,-0.2188,-0.2188,-0.2188,-0.2481,-0.2472,-0.2454,-0.2435,-0.2416,-0.24,-0.2388,-0.2371,-0.2353,-0.2331,-0.2315,-0.2295,-0.2269,-0.2245,-0.2226,-0.2218,-0.2211,-0.2221,-0.221,-0.2183,-0.2178,-0.2174,-0.2175,-0.222,-0.222,-0.224,-0.224,-0.2241]},{"header":{"parameterUnit":"m.s-1","parameterCategory":1,"la1":30.2991,"la2":30.254,"lo1":-89.0895,"lo2":-89.0444,"dy":0.0017,"dx":0.0017,"nx":28,"ny":28,"refTime":"2025-01-03T03:00:00:Z","depth":0,"parameterNumber":3,"parameterNumberName":"V-component_of_WINDS"},"data":[0,0,0,0,0,0,0,0,0,0,0,0,0,0,0,0,0,0,0,0,0,0,0,0,0,0,0,0,0,0,0,0,0,0,0,0,0,0,0,0,0,0,0,0,0,0,0,0,0,0,0,0,0,0,0,0,0,0,-2.0426,-2.0428,0,-2.061,-2.0612,-2.0614,-2.0683,-2.0683,-2.0682,-2.0682,-2.0868,-2.0873,-2.0878,0,0,0,0,0,0,0,0,0,0,0,0,0,-2.0133,-2.0138,-2.0426,-2.0428,-2.043,-2.061,-2.0612,-2.0615,-2.0684,-2.0683,-2.0682,-2.0682,-2.0866,-2.0872,-2.0879,0,0,0,0,0,0,0,0,0,0,0,0,0,-2.0283,-2.014,-2.0425,-2.0486,-2.0494,-2.0609,-2.0613,-2.0616,-2.0684,-2.0683,-2.0682,-2.0681,-2.0864,-2.0872,-2.088,-2.0948,0,0,-2.0905,-2.0908,0,0,0,0,0,0,0,0,-2.0274,-2.0293,-2.0475,-2.0482,-2.0491,-2.0623,-2.0577,-2.0727,-2.0684,-2.0611,-2.0682,-2.0681,-2.0787,-2.0801,-2.0838,-2.0956,-2.0964,-2.0906,-2.0911,-2.0914,-2.0916,0,0,0,0,0,0,0,-2.0264,-2.0286,-2.0499,-2.0478,-2.0487,-2.0504,-2.0525,-2.0606,-2.0701,-2.0618,-2.0623,-2.0644,-2.0791,-2.083,-2.0842,-2.0967,-2.0905,-2.0913,-2.0918,-2.0921,-2.1154,-2.1155,0,0,0,0,0,0,-2.0243,-2.0277,-2.0493,-2.0504,-2.0378,-2.051,-2.0533,-2.0581,-2.0701,-2.0718,-2.0645,-2.0647,-2.0816,-2.0833,-2.0849,-2.0939,-2.0914,-2.0922,-2.0927,-2.1153,-2.1154,-2.1155,0,0,0,0,0,0,-2.0237,-2.0262,-2.0485,-2.0392,-2.0422,-2.0516,-2.057,-2.0585,-2.0624,-2.0721,-2.0739,-2.0667,-2.0816,-2.0838,-2.0924,-2.0946,-2.0925,-2.0933,-2.1151,-2.1153,-2.1155,-2.1116,0,0,0,0,0,0,-2.0228,-2.0259,-2.0286,-2.0392,-2.0427,-2.0556,-2.0571,-2.059,-2.0639,-2.0643,-2.0747,-2.0763,-2.0817,-2.0911,-2.0932,-2.0957,-2.0939,-2.1149,-2.1152,-2.1154,-2.1115,-2.1116,-2.1117,0,0,0,0,0,-2.0217,-2.0266,-2.0287,-2.0312,-2.0462,-2.0558,-2.0577,-2.0639,-2.064,-2.0668,-2.0731,-2.076,-2.094,-2.0919,-2.0943,-2.0971,-2.1148,-2.1151,-2.1154,-2.1115,-2.1116,-2.1117,0,0,0,0,0,0,-2.0158,-2.0281,-2.0305,-2.039,-2.0463,-2.0569,-2.0606,-2.0638,-2.0711,-2.0712,-2.0785,-2.0808,-2.0888,-2.0938,-2.0913,-2.1044,-2.1046,-2.1054,-2.1009,-2.101,-2.1011,-2.0997,-2.0946,0,0,0,0,0,-2.0155,-2.0223,-2.0326,-2.0391,-2.0427,-2.051,-2.0554,-2.0596,-2.0674,-2.0705,-2.0774,-2.0848,-2.0922,-2.0969,-2.1042,-2.1123,-2.1148,-2.1155,-2.1155,-2.1155,-2.1161,-2.121,-2.1215,-2.1165,-2.1165,-2.1165,0,0,-2.0148,-2.0224,-2.0262,-2.0381,-2.0443,-2.0512,-2.0535,-2.0606,-2.0658,-2.0715,-2.0801,-2.0855,-2.0943,-2.1027,-2.1068,-2.1071,-2.118,-2.1159,-2.1158,-2.1164,-2.1213,-2.1218,-2.1222,-2.1167,-2.1166,-2.1166,0,0,-2.0172,-2.0236,-2.0298,-2.0361,-2.0454,-2.051,-2.0525,-2.0627,-2.0666,-2.0753,-2.0798,-2.0861,-2.0986,-2.1048,-2.1095,-2.1147,-2.1177,-2.1169,-2.1171,-2.1218,-2.1222,-2.1226,-2.1246,-2.1252,-2.1174,-2.1174,-2.1174,0,-2.0152,-2.0259,-2.0326,-2.0396,-2.0448,-2.0505,-2.0569,-2.0625,-2.0737,-2.0772,-2.0775,-2.0935,-2.0998,-2.1099,-2.1112,-2.1148,-2.1168,-2.1157,-2.1216,-2.1221,-2.1225,-2.1245,-2.1252,-2.1173,-2.1173,-2.1173,-2.1173,0,-2.023,-2.0303,-2.0342,-2.0452,-2.0508,-2.0574,-2.0652,-2.0701,-2.0739,-2.0794,-2.0884,-2.0962,-2.1053,-2.1081,-2.1117,-2.1188,-2.1187,-2.1202,-2.1205,-2.1228,-2.1247,-2.1255,-2.117,-2.1171,-2.1171,-2.1172,0,0,-2.0219,-2.0368,-2.0381,-2.0433,-2.0542,-2.06,-2.067,-2.0761,-2.0802,-2.0878,-2.0939,-2.1045,-2.1061,-2.1115,-2.1159,-2.1201,-2.1239,-2.1211,-2.1215,-2.1214,-2.1323,-2.1311,-2.1318,-2.1259,-2.1261,-2.1263,-2.1316,0,-2.0258,-2.0387,-2.0451,-2.0552,-2.0621,-2.0678,-2.0739,-2.0813,-2.0867,-2.0934,-2.0994,-2.1069,-2.1083,-2.1117,-2.116,-2.1224,-2.1261,-2.1222,-2.1317,-2.132,-2.1293,-2.1328,-2.1316,-2.1362,-2.1324,-2.1325,-2.1326,0,-2.032,-2.0399,-2.0507,-2.0611,-2.0642,-2.0696,-2.0786,-2.0849,-2.0935,-2.0972,-2.1034,-2.1078,-2.1155,-2.1153,-2.126,-2.1232,-2.1275,-2.1313,-2.1317,-2.1328,-2.1324,-2.1341,-2.1378,-2.1385,-2.1339,-2.1338,-2.1337,0,-2.0303,-2.0435,-2.0518,-2.056,-2.0683,-2.072,-2.0773,-2.0858,-2.091,-2.0988,-2.1023,-2.1108,-2.1155,-2.1221,-2.1288,-2.128,-2.1389,-2.1392,-2.1422,-2.142,-2.1441,-2.1439,-2.1486,-2.1469,-2.1468,-2.1468,-2.1468,0,-2.034,-2.0404,-2.0512,-2.0563,-2.0637,-2.0711,-2.0782,-2.0839,-2.0915,-2.0978,-2.1032,-2.109,-2.1175,-2.1243,-2.1296,-2.1378,-2.1398,-2.143,-2.1443,-2.1426,-2.1422,-2.1454,-2.1453,-2.147,-2.147,-2.1469,-2.1469,0,-2.0332,-2.0407,-2.0501,-2.0611,-2.0641,-2.0691,-2.0785,-2.0837,-2.0895,-2.0974,-2.0997,-2.1089,-2.1173,-2.1246,-2.1356,-2.1392,-2.1476,-2.1492,-2.1447,-2.1455,-2.148,-2.1477,-2.155,-2.1564,-2.1536,-2.1537,-2.1537,0,-2.0351,-2.0402,-2.0519,-2.0566,-2.0618,-2.0693,-2.0747,-2.0822,-2.0876,-2.0979,-2.1019,-2.1107,-2.1182,-2.1314,-2.139,-2.1475,-2.1494,-2.1514,-2.1507,-2.1488,-2.1495,-2.1491,-2.1498,-2.1513,-2.1513,-2.1513,-2.1513,0,-2.0376,-2.0412,-2.0487,-2.0577,-2.0641,-2.0714,-2.079,-2.0825,-2.0915,-2.0973,-2.106,-2.1119,-2.1233,-2.1321,-2.1415,-2.147,-2.1507,-2.1515,-2.1527,-2.1509,-2.1481,-2.1498,-2.1448,-2.1513,-2.1513,-2.1513,-2.1513,-2.1513,-2.0383,-2.0432,-2.0523,-2.0606,-2.0672,-2.0742,-2.0797,-2.0863,-2.0938,-2.1038,-2.1078,-2.1168,-2.1255,-2.1386,-2.1441,-2.1513,-2.1519,-2.1535,-2.1539,-2.1542,-2.154,-2.147,-2.153,-2.153,-2.153,-2.153,-2.153,0,-2.0412,-2.0474,-2.055,-2.0655,-2.0722,-2.0753,-2.0839,-2.0892,-2.0971,-2.1049,-2.1123,-2.1225,-2.1311,-2.1395,-2.1485,-2.1527,-2.1546,-2.1548,-2.1545,-2.1558,-2.1528,-2.151,-2.1531,-2.1531,-2.1531,-2.1531,-2.1531,-2.1531,-2.0434,-2.052,-2.0567,-2.0686,-2.0748,-2.0837,-2.0884,-2.0949,-2.1013,-2.1125,-2.1197,-2.1252,-2.1334,-2.1431,-2.1512,-2.1535,-2.1566,-2.1563,-2.159,-2.1561,-2.156,-2.1559,-2.1542,-2.1569,-2.1569,-2.1614,-2.1614,-2.1614]}]]